Hourly Weather Roundup
Issued by NWS Central Illinois

Home | Current Version | Previous Version | Text Only | Print | Product List | Glossary On
Versions: 1 2 3 4 5 6 7 8 9 10 11 12 13 14 15 16 17 18 19 20 21 22 23 24 25 26 27 28 29 30 31 32 33 34 35 36 37 38 39 40 41 42 43 44 45 46 47 48 49 50
000
NZUS43 KILX 252010
HWRILX

Area Weather Roundup
National Weather Service Lincoln IL
300 PM CDT SUN JUN 25 2017

NOTE:  "FAIR" indicates few or no clouds below 12,000 feet, with
       no sigificant weather and/or obstructions to visibility.


CITY           SKY/WX    TMP DP  RH WIND       PRES   REMARKS
Bloomington    PTSUNNY   73  47  39 NW21G26   30.16S
Champaign      SUNNY     76  43  30 W14G23    30.14F
Danville       PTSUNNY   75  49  39 W13       30.11S
Decatur        MOSUNNY   76  46  34 W15G23    30.15F
Effingham      SUNNY     80  47  30 W16G23    30.17F
Flora          SUNNY     82  44  26 NW17G26   30.17F HX  80
Galesburg      PTSUNNY   70  49  46 NW16G23   30.17F
Jacksonville   MOSUNNY   75  46  35 NW20G25   30.18S
Lacon          PTSUNNY   71  49  45 W12G18    30.14F
Lawrenceville  MOSUNNY   80  48  32 NW21      30.15F
Litchfield     SUNNY     77  48  36 W17G23    30.18S
$$


CITY           SKY/WX    TMP DP  RH WIND       PRES   REMARKS
Lincoln        PTSUNNY   75  47  37 NW10G18   30.16S
Macomb         MOSUNNY   71  46  40 W10G21    30.20F
Mattoon        SUNNY     76  48  37 NW14G23   30.15F
Mt Carmel AP   SUNNY     78  48  33 NW17G24   30.15F
Olney-Noble AP SUNNY     79  49  35 W18       30.16F
Paris AP       SUNNY     75  48  38 W13G21    30.15F
Peoria         MOSUNNY   72  46  39 W15G29    30.16F
Pontiac        CLOUDY    71  46  40 NW17G23   30.15S
Rantoul        PTSUNNY   75  48  37 W17G25    30.14S
Robinson       SUNNY     77  49  36 W13G21    30.16F
Springfield    SUNNY     77  46  33 W15G23    30.16F
Taylorville    MOSUNNY   76  46  34 W13G23    30.16F
$$

...REGIONAL REPORTS...


CITY           SKY/WX    TMP DP  RH WIND       PRES   REMARKS
Chicago O`Hare PTSUNNY   70  45  40 W22       30.09R
Kankakee       PTSUNNY   73  45  36 W20       30.13S
Moline         CLOUDY    68  48  48 NW18      30.16F
Mount Sterling PTSUNNY   72  47  40 W15G26    30.19F
Mount Vernon   SUNNY     80  48  32 W12G21    30.18
Pittsfield     SUNNY     75  47  36 NW18G24   30.20S
Quincy         SUNNY     73  46  38 NW20G30   30.21S
Rockford       PTSUNNY   68  49  50 W15G23    30.12F
$$


CITY           SKY/WX    TMP DP  RH WIND       PRES   REMARKS
Burlington     MOSUNNY   73  48  41 NW12G20   30.18F
Cedar Rapids   PTSUNNY   69  50  50 NW18G25   30.17F
Des Moines     MOSUNNY   73  43  33 NW16G23   30.22F
Kirksville     SUNNY     74  46  36 W17G24    30.24F
Ottumwa        PTSUNNY   74  44  34 NW15G26   30.21S
St Louis       MOSUNNY   83  45  26 NW22G28   30.19F HX  81
$$


CITY           SKY/WX    TMP DP  RH WIND       PRES   REMARKS
Terre Haute    MOSUNNY   76  45  33 W13G22    30.14F
Evansville     MOSUNNY   82  46  28 W13G23    30.16F HX  80
Indianapolis   MOSUNNY   74  48  39 W10G20    30.13F
Lafayette      MOSUNNY   72  49  44 W17       30.12F
Madison        PTSUNNY   62  48  60 W10       30.10S
Milwaukee      PTSUNNY   72  45  37 W16G25    30.05F
$$






USA.gov is the U.S. government's official web portal to all federal, state and local government web resources and services.